NOAA 16 DEB, 41203

Orbit data source: Space-Track

NOAA 16 DEB, 41203 is space debris in SSO originally from a launch on Thu, 21 Sep 2000 UTC launched from the Air Force Western Test Range (AFWTR). Debris objects in space refer to the collection of defunct objects orbiting the Earth. Examples of debris include non-operational satellites, rocket bodies, and fragments generated from explosions, collisions, or faulty payload assembly.

Loading next visibility...
Identifier
41203, 2000-055DG
Orbit
SSO
Country
Flag of USUS
Related business
Manufacturer
Unknown
Mission
Spacecraft
Bus & Motor
Unknown
Mass
Unknown
Launch date (UTC)
2000-09-21 (26 years ago)
Launch vehicle
Unknown
Launch site
Air Force Western Test Range (AFWTR)
Object type
Payload
Rocket body
Debris
Shape & HBR
Unknown shape, 0.1 m
Radar Cross Section
Small (<0.1 m²)

Expand to show TLE details & history
Last TLE update: 4 days ago

TLE from 4 days ago
0 NOAA 16 DEB
1 41203U 00055DG  26124.06803727  .00002366  00000-0  11284-2 0  9993
2 41203  98.6855 168.0760 0030393 250.1616 109.6284 14.19968034535547
Epoch: 2026-05-04T01:37Z
TLE epoch observation values (Epoch: 2026-05-04T01:37:58.420Z)
Latitude
0.00003°
Longitude
-78.37997°
Altitude
835.791 km
Speed
7.431 km/s
True Right ascension
11h 12m 18s
True Declination
0° 00' 00"
Sunlit
Object was in full shadow at epoch
Visualization orbit readout
Latitude
Unknown
Longitude
Unknown
Altitude
Unknown
Speed
Unknown
Apparent Right ascension
Unknown
Apparent Declination
Unknown
Sunlit
N/A
Visualization observer readout
Local Sidereal Time
06:14:43
Azimuth
Unknown
Elevation
Unknown
Doppler factor
Unknown
Orbital elements
Apogee altitude
844.504 km
Perigee altitude
800.733 km
Semi-major axis
7,200.755 km
Eccentricity
0.00304
Inclination
98.6855°
RAAN
168.076°
Arg. of periapsis
250.1616°
True anomaly
109.95602°
Mean anomaly
109.6284°
Eccentric anomaly
109.79225°
Mean motion
3.55203 °/min
Orbital period
101.35 mins
BSTAR
0.0011284
Loading maneuver chart data...
Computing Atmospheric mass density...

Documentation

Showing up to 5 results
|